TimeCET,TemperatureF,Dew PointF,Humidity,Sea Level PressureIn,VisibilityMPH,Wind Direction,Wind SpeedMPH,Gust SpeedMPH,PrecipitationIn,Events,Conditions,WindDirDegrees,DateUTC
12:55 AM,28.4,26.6,93,29.89,0.0,SW,36.8,-,N/A,Fog,Light Freezing Fog,230,2013-03-05 23:55:00
1:00 AM,29,26,83,,0,SW,36.8,,,Fog,Heavy Fog,230,2013-03-06 00:00:00
1:55 AM,28.4,26.6,93,29.89,0.0,SW,34.5,-,N/A,Fog,Light Freezing Fog,230,2013-03-06 00:55:00
2:55 AM,28.4,26.6,93,29.86,0.0,SW,41.4,-,N/A,Fog,Light Freezing Fog,230,2013-03-06 01:55:00
3:55 AM,28.4,24.8,86,29.80,0.0,WSW,42.6,-,N/A,Fog,Light Freezing Fog,240,2013-03-06 02:55:00
4:55 AM,28.4,24.8,86,29.80,0.0,WSW,40.3,-,N/A,Fog,Light Freezing Fog,240,2013-03-06 03:55:00
5:55 AM,28.4,24.8,86,29.80,0.0,SW,46.0,-,N/A,Fog,Light Freezing Fog,230,2013-03-06 04:55:00
6:55 AM,28.4,24.8,86,29.77,0.0,WSW,44.9,-,N/A,Fog,Light Freezing Fog,240,2013-03-06 05:55:00
7:00 AM,28,26,86,,0,WSW,44.9,,,Fog,Heavy Fog,240,2013-03-06 06:00:00
7:55 AM,28.4,24.8,86,29.77,0.0,NNE,44.9,-,N/A,Fog,Light Freezing Fog,20,2013-03-06 06:55:00
8:55 AM,28.4,26.6,93,29.77,0.0,WSW,48.3,-,N/A,Fog,Light Freezing Fog,240,2013-03-06 07:55:00
9:55 AM,30.2,26.6,86,29.77,0.0,NNE,47.2,-,N/A,Fog,Light Freezing Fog,20,2013-03-06 08:55:00
10:55 AM,30.2,26.6,86,29.74,0.0,NNE,46.0,-,N/A,Fog,Light Freezing Fog,20,2013-03-06 09:55:00
11:55 AM,30.2,26.6,86,29.74,0.0,SW,48.3,-,N/A,Fog,Light Freezing Fog,230,2013-03-06 10:55:00
12:55 PM,30.2,26.6,86,29.71,0.0,SW,46.0,-,N/A,Fog,Light Freezing Fog,230,2013-03-06 11:55:00
1:00 PM,30,27,84,,0,SW,46.0,,,Fog,Heavy Fog,230,2013-03-06 12:00:00
1:55 PM,30.2,26.6,86,29.68,0.0,SW,47.2,-,N/A,Fog,Light Freezing Fog,230,2013-03-06 12:55:00
2:55 PM,30.2,26.6,86,29.65,0.0,SW,46.0,-,N/A,Fog,Light Freezing Fog,230,2013-03-06 13:55:00
3:55 PM,30.2,26.6,86,29.62,0.0,SW,49.5,-,N/A,Fog,Light Freezing Fog,220,2013-03-06 14:55:00
4:55 PM,30.2,26.6,86,29.62,0.0,SW,43.7,-,N/A,Fog,Light Freezing Fog,230,2013-03-06 15:55:00
5:55 PM,30.2,26.6,86,29.65,0.0,SW,32.2,-,N/A,Fog,Light Freezing Fog,230,2013-03-06 16:55:00
6:55 PM,30.2,28.4,93,29.65,0.0,SW,32.2,-,N/A,Fog,Light Freezing Fog,230,2013-03-06 17:55:00
7:00 PM,31,28,82,,0,SW,32.2,,,Fog,Heavy Fog,230,2013-03-06 18:00:00
7:55 PM,30.2,28.4,93,29.65,0.0,SW,39.1,-,N/A,Fog,Light Freezing Fog,230,2013-03-06 18:55:00
8:55 PM,32.0,28.4,87,29.65,0.0,WSW,46.0,-,N/A,Fog,Light Freezing Fog,240,2013-03-06 19:55:00
9:55 PM,32.0,28.4,87,29.65,0.0,WSW,47.2,-,N/A,Fog,Light Freezing Fog,240,2013-03-06 20:55:00
10:55 PM,32.0,28.4,87,29.65,0.0,SW,43.7,-,N/A,Fog,Light Freezing Fog,230,2013-03-06 21:55:00
11:55 PM,32.0,28.4,87,29.65,0.0,SW,40.3,-,N/A,Fog,Fog,230,2013-03-06 22:55:00